Regional Weather Roundup
Issued by NWS State College, PA

Home | Current Version | Previous Version | Text Only | Print | Product List | Glossary On
Versions: 1 2 3 4 5 6 7 8 9 10 11 12 13 14 15 16 17 18 19 20 21 22 23 24 25 26 27 28 29 30 31 32 33 34 35 36 37 38 39 40 41 42 43 44 45 46 47 48 49 50
000
ASUS41 KCTP 292310
RWRCTP

REGIONAL WEATHER ROUNDUP
NATIONAL WEATHER SERVICE STATE COLLEGE PA
700 PM EDT FRI MAY 29 2015

Note: "fair" indicates few or no clouds below 12,000 feet with no
significant weather and/or obstructions to visibility.

* = STATION THAT DOES NOT REPORT PRECIPITATION /E.G. RAIN...SNOW...ETC/
    THUNDER OR FOG.

PAZ002>004-007>009-013>016-020>023-029>032-300000-
WESTERN PENNSYLVANIA

CITY           SKY/WX    TMP DP  RH WIND       PRES   REMARKS
ERIE           PTSUNNY   78  63  59 SE3       30.07S
MEADVILLE      PTSUNNY   75  66  73 CALM      30.10F
FRANKLIN*      PTSUNNY   75  61  60 SE10      30.14F
NEW CASTLE     FAIR      84  65  52 CALM      30.10S
BEAVER COUNTY  SUNNY     84  63  48 SW6       30.10F
BUTLER*        PTSUNNY   72  66  83 SE8       30.15S THUNDER
PITTSBURGH INT PTSUNNY   79  64  60 S8        30.11F
PITTSBURGH     PTSUNNY   73  63  70 SE8       30.13F
INDIANA*       FOG       68  68 100 NW9       30.22R VSB 3/4
LATROBE        PTSUNNY   73  70  88 CALM      30.18R
WASHINGTON CO* MOSUNNY   75  64  69 S5        30.15F
$$

PAZ004>006-010>012-017>019-024>028-033>037-041-042-045-046-049>053-300000-
CENTRAL PENNSYLVANIA

CITY           SKY/WX    TMP DP  RH WIND       PRES   REMARKS
BRADFORD       PTSUNNY   78  59  51 S7        30.17F
DUBOIS         PTSUNNY   80  61  52 S6        30.16S
CLEARFIELD     PTSUNNY   79  62  56 VRB5      30.17S
JOHNSTOWN      CLOUDY    73  61  65 S8        30.22R
ALTOONA        PTSUNNY   78  62  57 S12       30.20R
STATE COLLEGE  MOSUNNY   81  63  54 S7        30.17S
WILLIAMSPORT   MOSUNNY   82  61  48 S14       30.13F
SELINSGROVE    MOSUNNY   83  62  49 S10       30.17S
FT INDIANTOWN  MOSUNNY   82  65  56 S6        30.18R
CAPITAL CITY   MOSUNNY   83  65  54 SE6       30.16F
HARRISBURG     PTSUNNY   83  66  56 SE7       30.16S
YORK           MOSUNNY   81  66  60 SE7       30.18S
$$

PAZ038>040-043-044-047-048-054-055-060>062-067>071-300000-
EASTERN PENNSYLVANIA

CITY           SKY/WX    TMP DP  RH WIND       PRES   REMARKS
SCRANTON       PTSUNNY   82  56  40 S6        30.18F
MOUNT POCONO   PTSUNNY   77  54  44 S8        30.23F
ALLENTOWN      MOSUNNY   86  58  38 S8        30.18S
QUAKERTOWN*    PTCLDY    84  61  45 SW6       30.20S
READING        PTSUNNY   83  62  49 S8        30.17S
LANCASTER      MOSUNNY   81  64  56 S10       30.18S
COATESVILLE    PTCLDY    79  66  65 SE7       30.21F
POTTSTOWN      MOSUNNY   83  63  50 S8        30.20S
BLUE BELL      MOSUNNY   84  64  51 S3        30.18S
DOYLESTOWN     MOSUNNY   80  60  50 VRB7      30.19S
WILLOW GROVE   NOT AVBL
NORTH PHILA    PTSUNNY   82  60  47 SE13      30.21R
PHILADELPHIA   PTSUNNY   82  64  54 S8        30.19S
$$


USA.gov is the U.S. government's official web portal to all federal, state and local government web resources and services.